Weather History for Hays, KS

Change the Weather History Date:

Saturday, November 10, 2012

  Actual Average Record
Temperature  
Mean Temperature 61 °F -  
Max Temperature 80 °F 53 °F 80 °F (2012)
Min Temperature 41 °F 30 °F 19 °F (2000)
Degree Days  
Heating Degree Days 4    
Growing Degree Days 11 (Base 50)    
Moisture  
Dew Point 44 °F    
Average Humidity 51    
Maximum Humidity 70    
Minimum Humidity 32    
Precipitation  
Precipitation 0.00 in - - ()
Sea Level Pressure  
Sea Level Pressure 29.57 in    
Wind  
Wind Speed 19 mph (SSW)    
Max Wind Speed 34 mph    
Max Gust Speed 43 mph    
Visibility 10 miles    
Events      
Averages and records for this station are not official NWS values.
T = Trace of Precipitation, MM = Missing Value Source: NWS Daily Summary

Daily Weather History Graph

Daily Weather History Graph

Search for Another Location

Airport:

Trip Planner

Search our weather history database for the weather conditions in past years. The results will help you decide how hot, cold, wet, or windy it might be!

Date:

Astronomy

Nov. 10, 2012 Rise Set
Actual Time 7:14 AM CST 5:27 PM CST
Civil Twilight 6:46 AM CST 5:55 PM CST
Nautical Twilight 6:14 AM CST 6:27 PM CST
Astronomical Twilight 5:43 AM CST 6:58 PM CST
Moon 3:23 AM CST (11/10) 3:13 PM CST (11/10)
Length of Visible Light 11h 08m
Length of Day
10h 12m
Waning Crescent, 14% of the Moon is Illuminated
Nov 10
Waning Crescent
Nov 13
New
Nov 20
First Quarter
Nov 28
Full
Dec 6
Last Quarter

Hourly Weather History & Observations

Time (CST) Temp. Windchill Dew Point Humidity Pressure Visibility Wind Dir Wind Speed Gust Speed Precip Events Conditions
12:15 AM 60.8 °F - 35.6 °F 39% 29.60 in 10.0 mi SSW 17.3 mph - N/A   Clear
12:35 AM 60.8 °F - 35.6 °F 39% 29.60 in 10.0 mi SSW 15.0 mph - N/A   Clear
12:55 AM 59.0 °F - 35.6 °F 42% 29.60 in 10.0 mi South 16.1 mph - N/A   Clear
1:15 AM 57.2 °F - 35.6 °F 44% 29.60 in 10.0 mi SSW 16.1 mph - N/A   Clear
1:35 AM 57.2 °F - 35.6 °F 44% 29.60 in 10.0 mi SSW 11.5 mph - N/A   Clear
1:55 AM 57.2 °F - 37.4 °F 48% 29.60 in 10.0 mi SSW 16.1 mph - N/A   Clear
2:15 AM 57.2 °F - 37.4 °F 48% 29.60 in 10.0 mi SSW 15.0 mph - N/A   Clear
2:55 AM 57.2 °F - 37.4 °F 48% 29.60 in 10.0 mi South 13.8 mph - N/A   Clear
3:15 AM 57.2 °F - 37.4 °F 48% 29.61 in 10.0 mi South 15.0 mph - N/A   Clear
3:35 AM 57.2 °F - 37.4 °F 48% 29.61 in 10.0 mi SSW 16.1 mph - N/A   Clear
3:55 AM 57.2 °F - 37.4 °F 48% 29.61 in 10.0 mi SSW 15.0 mph 21.9 mph N/A   Clear
4:15 AM 57.2 °F - 39.2 °F 51% 29.62 in 10.0 mi SSW 18.4 mph 26.5 mph N/A   Clear
4:35 AM 57.2 °F - 39.2 °F 51% 29.62 in 10.0 mi SSW 17.3 mph - N/A   Clear
4:55 AM 57.2 °F - 39.2 °F 51% 29.61 in 10.0 mi SSW 13.8 mph - N/A   Clear
5:15 AM 57.2 °F - 39.2 °F 51% 29.62 in 10.0 mi SSW 12.7 mph - N/A   Clear
5:35 AM 57.2 °F - 39.2 °F 51% 29.62 in 10.0 mi SSW 12.7 mph - N/A   Clear
5:55 AM 59.0 °F - 39.2 °F 48% 29.62 in 10.0 mi SSW 20.7 mph - N/A   Clear
6:35 AM 57.2 °F - 39.2 °F 51% 29.62 in 10.0 mi SSW 16.1 mph - N/A   Clear
6:55 AM 57.2 °F - 39.2 °F 51% 29.62 in 10.0 mi SSW 17.3 mph - N/A   Clear
7:15 AM 57.2 °F - 39.2 °F 51% 29.62 in 10.0 mi South 18.4 mph - N/A   Clear
7:35 AM 55.4 °F - 39.2 °F 54% 29.63 in 10.0 mi South 15.0 mph - N/A   Clear
7:55 AM 55.4 °F - 39.2 °F 54% 29.62 in 10.0 mi South 16.1 mph - N/A   Clear
8:15 AM 57.2 °F - 39.2 °F 51% 29.62 in 10.0 mi South 16.1 mph 20.7 mph N/A   Clear
8:35 AM 57.2 °F - 42.8 °F 59% 29.62 in 10.0 mi South 15.0 mph - N/A   Clear
8:55 AM 62.6 °F - 44.6 °F 52% 29.61 in 10.0 mi South 20.7 mph 26.5 mph N/A   Clear
9:15 AM 64.4 °F - 48.2 °F 56% 29.60 in 10.0 mi South 21.9 mph 26.5 mph N/A   Clear
9:35 AM 66.2 °F - 51.8 °F 60% 29.59 in 10.0 mi South 25.3 mph 34.5 mph N/A   Clear
9:55 AM 68.0 °F - 51.8 °F 56% 29.59 in 10.0 mi South 25.3 mph 33.4 mph N/A   Clear
10:15 AM 69.8 °F - 53.6 °F 56% 29.59 in 10.0 mi SSW 24.2 mph 32.2 mph N/A   Clear
10:35 AM 71.6 °F - 53.6 °F 53% 29.57 in 10.0 mi SSW 31.1 mph 36.8 mph N/A   Clear
10:55 AM 73.4 °F - 53.6 °F 50% 29.57 in 9.0 mi SSW 25.3 mph 35.7 mph N/A   Clear
11:15 AM 73.4 °F - 53.6 °F 50% 29.56 in 10.0 mi SSW 25.3 mph 35.7 mph N/A   Clear
11:35 AM 75.2 °F - 53.6 °F 47% 29.56 in 10.0 mi South 25.3 mph 31.1 mph N/A   Clear
11:55 AM 75.2 °F - 53.6 °F 47% 29.54 in 10.0 mi South 24.2 mph 34.5 mph N/A   Clear
12:15 PM 77.0 °F - 51.8 °F 41% 29.52 in 10.0 mi South 26.5 mph 35.7 mph N/A   Clear
12:35 PM 78.8 °F - 51.8 °F 39% 29.51 in 10.0 mi South 27.6 mph 35.7 mph N/A   Clear
12:55 PM 78.8 °F - 51.8 °F 39% 29.50 in 10.0 mi South 28.8 mph 38.0 mph N/A   Clear
1:15 PM 78.8 °F - 51.8 °F 39% 29.49 in 10.0 mi SSW 26.5 mph 33.4 mph N/A   Clear
1:35 PM 78.8 °F - 48.2 °F 34% 29.48 in 10.0 mi South 28.8 mph 39.1 mph N/A   Clear
1:55 PM 80.6 °F - 48.2 °F 32% 29.47 in 10.0 mi SSW 33.4 mph 39.1 mph N/A   Clear
2:15 PM - - - N/A% 29.45 in 7.0 mi South 34.5 mph 42.6 mph N/A   Clear
2:35 PM 78.8 °F - 50.0 °F 36% 29.45 in 8.0 mi South 32.2 mph 38.0 mph N/A   Partly Cloudy
2:55 PM 78.8 °F - 50.0 °F 36% 29.45 in 10.0 mi South 29.9 mph 38.0 mph N/A   Clear
3:15 PM 78.8 °F - 50.0 °F 36% 29.45 in 10.0 mi South 29.9 mph 41.4 mph N/A   Partly Cloudy
3:35 PM 78.8 °F - 51.8 °F 39% 29.44 in 10.0 mi South 28.8 mph 40.3 mph N/A   Scattered Clouds
3:55 PM 75.2 °F - 51.8 °F 44% 29.45 in 8.0 mi South 26.5 mph 34.5 mph N/A   Mostly Cloudy
4:15 PM 75.2 °F - 51.8 °F 44% 29.45 in 10.0 mi South 21.9 mph 38.0 mph N/A   Partly Cloudy
4:35 PM 73.4 °F - 51.8 °F 47% 29.45 in 10.0 mi South 25.3 mph 29.9 mph N/A   Mostly Cloudy
4:55 PM 73.4 °F - 53.6 °F 50% 29.44 in 10.0 mi South 26.5 mph 36.8 mph N/A   Overcast
5:15 PM 73.4 °F - 51.8 °F 47% 29.44 in 10.0 mi South 23.0 mph 32.2 mph N/A   Mostly Cloudy
5:35 PM 71.6 °F - 53.6 °F 53% 29.44 in 10.0 mi South 21.9 mph - N/A   Overcast
5:55 PM - - - N/A% 29.44 in 10.0 mi South 31.1 mph 39.1 mph N/A   Overcast
6:15 PM 68.0 °F - 53.6 °F 60% 29.46 in 10.0 mi South 18.4 mph 25.3 mph N/A   Overcast
6:35 PM 66.2 °F - 50.0 °F 56% 29.48 in 10.0 mi South 25.3 mph 33.4 mph N/A   Overcast
6:55 PM 62.6 °F - 48.2 °F 59% 29.49 in 10.0 mi South 19.6 mph 25.3 mph N/A   Overcast
7:15 PM 62.6 °F - 48.2 °F 59% 29.48 in 10.0 mi South 15.0 mph - N/A   Mostly Cloudy
7:35 PM 62.6 °F - 46.4 °F 55% 29.50 in 10.0 mi NW 16.1 mph - N/A   Partly Cloudy
7:55 PM 59.0 °F - 39.2 °F 48% 29.52 in 10.0 mi NNW 20.7 mph 26.5 mph N/A   Clear
8:15 PM 53.6 °F - 37.4 °F 54% 29.57 in 10.0 mi NNW 18.4 mph - N/A   Scattered Clouds
8:35 PM 50.0 °F - 35.6 °F 58% 29.60 in 10.0 mi NNW 20.7 mph 26.5 mph N/A   Partly Cloudy
8:55 PM 46.4 °F 39.2 °F 35.6 °F 66% 29.61 in 10.0 mi North 18.4 mph - N/A   Clear
9:15 PM 44.6 °F 36.4 °F 33.8 °F 66% 29.65 in 10.0 mi NNW 20.7 mph 26.5 mph N/A   Clear
9:35 PM 44.6 °F 37.2 °F 33.8 °F 66% 29.67 in 10.0 mi North 17.3 mph - N/A   Partly Cloudy
10:15 PM 42.8 °F 34.5 °F 33.8 °F 70% 29.69 in 10.0 mi NNW 18.4 mph - N/A   Clear
10:35 PM 42.8 °F 35.4 °F 33.8 °F 70% 29.72 in 10.0 mi North 15.0 mph 23.0 mph N/A   Partly Cloudy
10:55 PM 42.8 °F 35.4 °F 33.8 °F 70% 29.75 in 10.0 mi NNW 15.0 mph 23.0 mph N/A   Mostly Cloudy
11:35 PM 42.8 °F 34.8 °F 32.0 °F 66% 29.76 in 10.0 mi NNW 17.3 mph - N/A   Overcast
11:55 PM 41.0 °F 31.6 °F 30.2 °F 65% 29.76 in 10.0 mi NNW 20.7 mph 26.5 mph N/A   Overcast